Flag for Russia Weather past 2 weeks in Rostov, Russia

Now
61 °F

Passing clouds.


Feels Like: 61 °F
Forecast: 54 / 74 °F
Wind: 6 mph from Northeast

Location: Rostov-Na-Donu

Current Time: Sep 15, 2014 at 7:02:25 AM

Latest Report: Sep 15, 2014 at 6:30 AM


Visibility: N/A

Pressure: 29.98 "Hg

Humidity: 63%

Dew point: 48 °F

Location of RostovLocation

Historic Weather in Rostov — Graph

°F

Rostov temperature yesterday

Maximum temperature yesterday: 77 °F (at 3:00 PM)
Minimum temperature yesterday: 54 °F (at 7:30 AM)
Average temperature yesterday: 65 °F

Past Weeks' High & Low Weather Summary

 TemperatureHumidityPressure
High88 °F (Sep 3, 4:00 PM)100% (Sep 8, 11:30 AM)30.12 "Hg (Sep 8, 11:30 AM)
Low54 °F (Sep 14, 7:30 AM)17% (Sep 4, 4:30 PM)29.83 "Hg (Sep 7, 7:30 PM)
Average70 °F50%29.98 "Hg
* Reported Aug 31 6:00 AM — Sep 15 6:00 AM, Rostov, Weather by CustomWeather, © 2014

Note: Actual official high and low records may vary slightly from our data, if they occured in-between our weather recording intervals... More about our weather records

Advertising

Rostov weather history for previous 24 hours

 ConditionsComfort  
Time TempWeatherWind HumidityBarometerVisibility
6:00 AM
Sep 15
61 °FClear.6 mph63%29.98 "Hg10 mi
5:30 AM59 °FClear.8 mph68%29.98 "Hg10 mi
5:00 AM61 °FClear.8 mph63%29.98 "Hg10 mi
4:30 AM64 °FClear.8 mph60%29.98 "Hg10 mi
4:00 AM64 °FClear.8 mph60%29.98 "Hg10 mi
3:30 AM61 °FClear.6 mph68%29.98 "Hg10 mi
3:00 AM64 °FClear.6 mph64%29.98 "Hg10 mi
2:30 AM66 °FClear.8 mph60%29.98 "Hg10 mi
2:00 AM66 °FClear.6 mph60%29.98 "Hg10 mi
1:30 AM68 °FClear.3 mph60%29.98 "Hg10 mi
1:00 AM66 °FPassing clouds.3 mph64%29.98 "HgN/A
12:30 AM64 °FClear.6 mph68%29.98 "Hg10 mi
12:00 AM66 °FClear.3 mph64%30.01 "Hg10 mi
11:30 PM
Sep 14
68 °FClear.3 mph60%30.01 "Hg10 mi
11:00 PM68 °FClear.6 mph60%30.01 "Hg10 mi
10:30 PM68 °FClear.6 mph60%30.01 "Hg10 mi
10:00 PM70 °FClear.6 mph57%30.01 "Hg10 mi
9:30 PM70 °FClear.6 mph57%30.01 "Hg10 mi
9:00 PM70 °FClear.6 mph57%30.01 "Hg10 mi
8:30 PM70 °FSunny.6 mph57%30.01 "Hg10 mi
8:00 PM70 °FSunny.6 mph57%30.01 "Hg10 mi
7:30 PM70 °FSunny.6 mph57%30.01 "Hg10 mi
7:00 PM73 °FSunny.6 mph50%30.01 "Hg10 mi
6:30 PM75 °FPartly sunny.8 mph47%30.01 "HgN/A
6:00 PM75 °FBroken clouds.10 mph44%30.01 "HgN/A
5:30 PM75 °FBroken clouds.10 mph44%30.01 "HgN/A
5:00 PM77 °FBroken clouds.10 mph44%30.01 "HgN/A
4:30 PM77 °FBroken clouds.10 mph44%30.01 "HgN/A
4:00 PM77 °FBroken clouds.10 mph42%30.01 "HgN/A
3:30 PM75 °FBroken clouds.10 mph44%30.01 "HgN/A
3:00 PM77 °FScattered clouds.10 mph39%30.04 "HgN/A
2:30 PM75 °FPassing clouds.10 mph41%30.04 "HgN/A
2:00 PM75 °FSunny.8 mph41%30.04 "Hg10 mi
1:30 PM73 °FPassing clouds.8 mph44%30.04 "HgN/A
1:00 PM72 °FPassing clouds.8 mph44%30.04 "HgN/A
12:30 PM72 °FPassing clouds.10 mph44%30.04 "HgN/A
12:00 PM72 °FPassing clouds.10 mph44%30.07 "HgN/A
11:30 AM70 °FSunny.10 mph46%30.07 "Hg10 mi
11:00 AM66 °FSunny.10 mph52%30.07 "Hg10 mi
10:30 AM64 °FSunny.13 mph56%30.07 "Hg10 mi
10:00 AM63 °FSunny.8 mph64%30.07 "Hg10 mi
9:30 AM61 °FPassing clouds.8 mph63%30.07 "HgN/A
9:00 AM59 °FSunny.8 mph68%30.09 "Hg10 mi
8:30 AM57 °FPassing clouds.6 mph72%30.07 "HgN/A
8:00 AM55 °FPassing clouds.8 mph72%30.07 "HgN/A
7:30 AM54 °FPassing clouds.8 mph77%30.07 "HgN/A
7:00 AM55 °FPassing clouds.6 mph72%30.07 "HgN/A
Weather by CustomWeather, © 2014

See weather overviewHow to use our weather pages